Regional Weather Roundup
Issued by NWS

Home | Current Version | Previous Version | Text Only | Print | Product List | Glossary On
Versions: 1 2 3 4 5 6 7 8 9 10 11 12 13 14 15 16 17 18 19 20 21 22 23 24 25 26 27 28 29 30 31 32 33 34 35 36 37 38 39 40 41 42 43 44 45 46 47 48 49 50
000
ASUS46 KSEW 040010
RWRWA

WASHINGTON REGIONAL WEATHER ROUNDUP
NATIONAL WEATHER SERVICE SEATTLE WA
500 PM PDT MON AUG 03 2015

NOTE:"FAIR" INDICATES FEW OR NO CLOUDS BELOW 12,000 FEET WITH NO
SIGNIFICANT WEATHER AND/OR OBSTRUCTIONS TO VISIBILITY.

WAZ505-507>509-040100-
SEATTLE, TACOMA, EVERETT, AND VICINITY

CITY           SKY/WX    TMP DP  RH WIND       PRES   REMARKS
EVERETT        SUNNY     70  54  56 N10G16    29.92S
6HR MIN TEMP:  65; 6HR MAX TEMP:  76;

BOEING FIELD   MOSUNNY   83  54  36 CALM      29.88F
6HR MIN TEMP:  71; 6HR MAX TEMP:  84;

RENTON         SUNNY     82  55  39 S9        29.87F
6HR MIN TEMP:  71; 6HR MAX TEMP:  83;

SEATAC AIRPORT PTSUNNY   81  55  40 S8        29.90F
6HR MIN TEMP:  68; 6HR MAX TEMP:  81;

JBLM-MCCHORD   MOSUNNY   84  55  37 S10       29.88F
6HR MIN TEMP:  69; 6HR MAX TEMP:  84;

PUYALLUP       FAIR      84  50  30 SW8       29.90F
BREMERTON      MOSUNNY   81  57  44 E6        29.91S
6HR MIN TEMP:  68; 6HR MAX TEMP:  84;

JBLM-FT LEWIS  MOSUNNY   83  56  38 SW8       29.88F
6HR MIN TEMP:  69; 6HR MAX TEMP:  84;

TACOMA NARROWS SUNNY     82  55  39 W8        29.89F
6HR MIN TEMP:  66; 6HR MAX TEMP:  82;

$$

WAZ001-503-506-510-514-515-040100-
NORTH INTERIOR

CITY           SKY/WX    TMP DP  RH WIND       PRES   REMARKS
BELLINGHAM     SUNNY     73  55  53 S14G22    29.88S
6HR MIN TEMP:  67; 6HR MAX TEMP:  75;

FRIDAY HARBOR  SUNNY     70  53  54 SW12      29.88S
6HR MIN TEMP:  66; 6HR MAX TEMP:  72;

EASTSOUND      SUNNY     73  55  53 S12       29.86R
PORT ANGELES   SUNNY     68  56  65 NW16G23   29.92F
6HR MIN TEMP:  64; 6HR MAX TEMP:  69;

PORT TOWNSEND  FAIR      72  57  60 NW9G16    29.91S
NAS WHIDBEY    MOSUNNY   65  56  72 SW16      29.95S
6HR MIN TEMP:  62; 6HR MAX TEMP:  67;

ARLINGTON      SUNNY     75  54  46 NW10      29.91S
6HR MIN TEMP:  70; 6HR MAX TEMP:  79;

BURLINGTON     SUNNY     72  55  56 SW10G17   29.91S
$$

WAZ020-022-039-040-504-511-512-040100-
SOUTHWEST INTERIOR

CITY           SKY/WX    TMP DP  RH WIND       PRES   REMARKS
SHELTON        SUNNY     80  56  43 SW17G28   29.86F
6HR MIN TEMP:  66; 6HR MAX TEMP:  83;

OLYMPIA        SUNNY     80  56  43 SW8G20    29.90S
6HR MIN TEMP:  66; 6HR MAX TEMP:  82;

CHEHALIS       FAIR      81  59  47 W8        29.92S HAZE
KELSO          MOSUNNY   79  57  47 NW10G16   29.94F
6HR MIN TEMP:  66; 6HR MAX TEMP:  79;

VANCOUVER      PTSUNNY   81  55  40 N7        29.89S
6HR MIN TEMP:  67; 6HR MAX TEMP:  84;

SCAPPOOSE, OR  PTSUNNY   81  57  43 N12       29.89F
6HR MIN TEMP:  67; 6HR MAX TEMP:  84;

PORTLAND, OR   CLOUDY    82  56  40 NW9       29.89F
6HR MIN TEMP:  68; 6HR MAX TEMP:  84;

$$

WAZ021-516-517-040100-
WASHINGTON COAST

CITY           SKY/WX    TMP DP  RH WIND       PRES   REMARKS
FORKS          PTSUNNY   68  59  73 W10       29.98S
6HR MIN TEMP:  64; 6HR MAX TEMP:  69; 6HR PCP: TRACE;

HOQUIAM        MOSUNNY   67  58  72 W16G23    29.97S
6HR MIN TEMP:  66; 6HR MAX TEMP:  70;

ASTORIA, OR    MOSUNNY   70  57  63 NW13      29.98S
6HR MIN TEMP:  63; 6HR MAX TEMP:  71;

$$

WAZ019-023-024-040-518-519-040100-
CASCADE MOUNTAINS AND COLUMBIA GORGE

CITY           SKY/WX    TMP DP  RH WIND       PRES   REMARKS
TROUTDALE, OR  PTSUNNY   83  51  33 W3        29.87F
6HR MIN TEMP:  69; 6HR MAX TEMP:  85; 6HR PCP: TRACE;

THE DALLES, OR CLOUDY    86  50  28 NW20      29.80F
6HR MIN TEMP:  76; 6HR MAX TEMP:  86;

$$

WAZ026-027-041>044-520-521-040100-
EAST SLOPES

CITY           SKY/WX    TMP DP  RH WIND       PRES   REMARKS
OMAK           CLOUDY    88  45  22 S9G25     29.77S
6HR MIN TEMP:  88; 6HR MAX TEMP:  98;

WENATCHEE      CLOUDY    88  41  19 NW10      29.80R
6HR MIN TEMP:  83; 6HR MAX TEMP:  92; 6HR PCP: TRACE;

ELLENSBURG     CLOUDY    84  42  22 NW22G28   29.86R
6HR MIN TEMP:  78; 6HR MAX TEMP:  84; 6HR PCP: TRACE;

YAKIMA         CLOUDY    89  46  22 N12       29.80F
6HR MIN TEMP:  84; 6HR MAX TEMP:  89; 6HR PCP: TRACE;

$$

WAZ028-034-035-040100-
COLUMBIA BASIN

CITY           SKY/WX    TMP DP  RH WIND       PRES   REMARKS
EPHRATA        CLOUDY    92  45  19 NW16      29.76F
6HR MIN TEMP:  87; 6HR MAX TEMP:  94; 6HR PCP: TRACE;

MOSES LAKE     CLOUDY    91  47  21 SW8       29.78R
6HR MIN TEMP:  87; 6HR MAX TEMP:  94;

PASCO          CLOUDY    87  50  27 SW9       29.78S
6HR MIN TEMP:  87; 6HR MAX TEMP:  96;

HERMISTON, OR  CLOUDY    85  47  26 SW6       29.80S
6HR MIN TEMP:  83; 6HR MAX TEMP:  92;

$$

WAZ036>038-040100-
NORTHEAST WASHINGTON

CITY           SKY/WX    TMP DP  RH WIND       PRES   REMARKS
SPOKANE GEIGER CLOUDY    87  43  21 SW21      29.82S
6HR MIN TEMP:  79; 6HR MAX TEMP:  90;

SPOKANE FELTS  CLOUDY    92  42  17 SW14G21   29.80R
6HR MIN TEMP:  83; 6HR MAX TEMP:  93;

FAIRCHILD AFB  CLOUDY    86  41  20 SW21      29.83R
6HR MIN TEMP:  79; 6HR MAX TEMP:  89;

COEURDALENE,ID CLOUDY    86  43  22 S5        29.80S
6HR MIN TEMP:  81; 6HR MAX TEMP:  88;

DEER PARK      CLOUDY    85  48  27 S10       29.80S
6HR MIN TEMP:  80; 6HR MAX TEMP:  88;

$$

WAZ029>033-040100-
SOUTHEAST WASHINGTON

CITY           SKY/WX    TMP DP  RH WIND       PRES   REMARKS
PULLMAN        CLOUDY    84  37  18 W14G25    29.90R
6HR MIN TEMP:  80; 6HR MAX TEMP:  88;

LEWISTON, ID   CLOUDY    91  35  13 W20G28    29.79R
6HR MIN TEMP:  81; 6HR MAX TEMP:  96;

WALLA WALLA    CLOUDY    86  47  25 S7        29.85R
6HR MIN TEMP:  84; 6HR MAX TEMP:  95; 6HR PCP: TRACE;

PENDLETON, OR  CLOUDY    84  44  24 NW6       29.85F
6HR MIN TEMP:  84; 6HR MAX TEMP:  90;

$$



USA.gov is the U.S. government's official web portal to all federal, state and local government web resources and services.